Time,TemperatureF,DewpointF,PressureIn,WindDirection,WindDirectionDegrees,WindSpeedMPH,WindSpeedGustMPH,Humidity,HourlyPrecipIn,Conditions,Clouds,dailyrainin,SoftwareType,DateUTC
2013-03-02 00:01:00,57.4,45.0,29.91,SW,214,0.0,0.0,63,0.00,,,0.00,WSDL version 420,2013-03-02 05:01:00,
2013-03-02 00:06:00,57.2,44.7,29.94,WSW,248,0.0,0.0,62,0.00,,,0.00,WSDL version 420,2013-03-02 05:06:00,
2013-03-02 00:11:00,57.3,44.8,29.94,SW,214,0.0,0.0,63,0.00,,,0.00,WSDL version 420,2013-03-02 05:11:00,
2013-03-02 00:16:00,57.3,44.4,29.94,SSE,158,0.0,0.0,62,0.00,,,0.00,WSDL version 420,2013-03-02 05:16:00,
2013-03-02 00:21:00,57.4,44.3,29.94,SW,218,0.0,2.2,61,0.00,,,0.00,WSDL version 420,2013-03-02 05:21:00,
2013-03-02 00:26:00,57.4,44.1,29.94,WSW,248,0.0,2.2,61,0.00,,,0.00,WSDL version 420,2013-03-02 05:26:00,
2013-03-02 00:31:00,57.6,44.1,29.94,WSW,248,0.0,2.2,60,0.00,,,0.00,WSDL version 420,2013-03-02 05:31:00,
2013-03-02 00:41:00,57.7,43.7,29.94,North,0,0.0,2.2,59,0.00,,,0.00,WSDL version 420,2013-03-02 05:41:00,
2013-03-02 00:46:00,57.7,43.5,29.94,North,-999,-999.0,-999.0,59,0.00,,,0.00,WSDL version 420,2013-03-02 05:46:00,
2013-03-02 00:51:00,57.7,43.1,29.94,North,-999,-999.0,-999.0,58,0.00,,,0.00,WSDL version 420,2013-03-02 05:51:00,
2013-03-02 00:56:00,57.7,43.1,29.94,North,-999,-999.0,-999.0,58,0.00,,,0.00,WSDL version 420,2013-03-02 05:56:00,
2013-03-02 01:01:00,57.7,42.6,29.94,North,-999,-999.0,-999.0,57,0.00,,,0.00,WSDL version 420,2013-03-02 06:01:00,
2013-03-02 01:06:00,57.7,42.6,29.97,North,-999,-999.0,-999.0,57,0.00,,,0.00,WSDL version 420,2013-03-02 06:06:00,
2013-03-02 01:11:00,57.6,42.0,29.97,North,-999,-999.0,-999.0,55,0.00,,,0.00,WSDL version 420,2013-03-02 06:11:00,
2013-03-02 01:16:00,57.5,41.0,29.97,North,-999,-999.0,-999.0,53,0.00,,,0.00,WSDL version 420,2013-03-02 06:16:00,
2013-03-02 01:21:00,57.3,40.5,29.94,North,-999,-999.0,-999.0,52,0.00,,,0.00,WSDL version 420,2013-03-02 06:21:00,
2013-03-02 01:26:00,57.2,40.0,29.94,North,-999,-999.0,-999.0,51,0.00,,,0.00,WSDL version 420,2013-03-02 06:26:00,
2013-03-02 01:31:00,57.2,38.8,29.94,North,-999,-999.0,-999.0,50,0.00,,,0.00,WSDL version 420,2013-03-02 06:31:00,
2013-03-02 01:36:00,57.1,38.6,29.94,North,-999,-999.0,-999.0,50,0.00,,,0.00,WSDL version 420,2013-03-02 06:36:00,
2013-03-02 01:41:00,57.0,38.4,29.94,North,-999,-999.0,-999.0,49,0.00,,,0.00,WSDL version 420,2013-03-02 06:41:00,
2013-03-02 01:46:00,56.9,38.2,29.94,SSW,203,2.0,3.4,49,0.00,,,0.00,WSDL version 420,2013-03-02 06:46:00,
2013-03-02 01:51:00,56.8,37.9,29.94,SSW,203,2.0,3.4,49,0.00,,,0.00,WSDL version 420,2013-03-02 06:51:00,
2013-03-02 01:56:00,56.7,37.7,29.94,SSW,203,2.0,3.4,49,0.00,,,0.00,WSDL version 420,2013-03-02 06:56:00,
2013-03-02 02:01:00,56.7,37.6,29.94,North,0,0.0,3.4,48,0.00,,,0.00,WSDL version 420,2013-03-02 07:01:00,
2013-03-02 02:06:00,56.7,37.1,29.94,SSW,203,2.2,2.7,47,0.00,,,0.00,WSDL version 420,2013-03-02 07:06:00,
2013-03-02 02:11:00,56.5,36.5,29.94,WSW,248,2.5,2.7,47,0.00,,,0.00,WSDL version 420,2013-03-02 07:11:00,
2013-03-02 02:21:00,56.3,35.8,29.94,WSW,248,2.5,2.5,46,0.00,,,0.00,WSDL version 420,2013-03-02 07:21:00,
2013-03-02 02:26:00,56.3,35.6,29.94,North,0,0.0,2.0,46,0.00,,,0.00,WSDL version 420,2013-03-02 07:26:00,
2013-03-02 02:31:00,56.2,35.7,29.94,North,0,0.0,2.0,46,0.00,,,0.00,WSDL version 420,2013-03-02 07:31:00,
2013-03-02 02:36:00,56.1,35.6,29.94,North,-999,-999.0,-999.0,46,0.00,,,0.00,WSDL version 420,2013-03-02 07:36:00,
2013-03-02 02:46:00,55.9,35.4,29.94,North,-999,-999.0,-999.0,46,0.00,,,0.00,WSDL version 420,2013-03-02 07:46:00,
2013-03-02 02:51:00,55.8,35.9,29.94,North,-999,-999.0,-999.0,47,0.00,,,0.00,WSDL version 420,2013-03-02 07:51:00,
2013-03-02 02:56:00,55.8,35.6,29.94,North,-999,-999.0,-999.0,46,0.00,,,0.00,WSDL version 420,2013-03-02 07:56:00,
2013-03-02 03:01:00,55.6,35.5,29.94,North,-999,-999.0,-999.0,47,0.00,,,0.00,WSDL version 420,2013-03-02 08:01:00,
2013-03-02 03:11:00,55.6,35.4,29.97,North,-999,-999.0,-999.0,47,0.00,,,0.00,WSDL version 420,2013-03-02 08:11:00,
2013-03-02 03:16:00,55.6,35.7,29.97,North,-999,-999.0,-999.0,47,0.00,,,0.00,WSDL version 420,2013-03-02 08:16:00,
2013-03-02 03:21:00,55.5,35.5,29.94,North,-999,-999.0,-999.0,47,0.00,,,0.00,WSDL version 420,2013-03-02 08:21:00,
2013-03-02 03:26:00,55.6,35.7,29.94,North,-999,-999.0,-999.0,47,0.00,,,0.00,WSDL version 420,2013-03-02 08:26:00,
2013-03-02 03:31:00,55.6,35.6,29.94,North,-999,-999.0,-999.0,47,0.00,,,0.00,WSDL version 420,2013-03-02 08:31:00,
2013-03-02 03:36:00,55.5,35.6,29.94,North,-999,-999.0,-999.0,47,0.00,,,0.00,WSDL version 420,2013-03-02 08:36:00,
2013-03-02 03:41:00,55.4,35.5,29.94,North,-999,-999.0,-999.0,47,0.00,,,0.00,WSDL version 420,2013-03-02 08:41:00,
2013-03-02 03:46:00,55.4,35.5,29.94,North,-999,-999.0,-999.0,47,0.00,,,0.00,WSDL version 420,2013-03-02 08:46:00,
2013-03-02 03:51:00,55.4,35.5,29.94,North,-999,-999.0,-999.0,47,0.00,,,0.00,WSDL version 420,2013-03-02 08:51:00,
2013-03-02 03:56:00,55.2,35.4,29.94,North,-999,-999.0,-999.0,47,0.00,,,0.00,WSDL version 420,2013-03-02 08:56:00,
2013-03-02 04:01:00,55.3,35.6,29.94,North,-999,-999.0,-999.0,47,0.00,,,0.00,WSDL version 420,2013-03-02 09:01:00,
2013-03-02 04:06:00,55.2,35.9,29.97,North,360,2.9,2.9,48,0.00,,,0.00,WSDL version 420,2013-03-02 09:06:00,
2013-03-02 04:11:00,55.2,35.9,29.97,WSW,248,2.2,2.5,48,0.00,,,0.00,WSDL version 420,2013-03-02 09:11:00,
2013-03-02 04:16:00,55.2,36.0,29.97,WSW,248,2.2,2.2,49,0.00,,,0.00,WSDL version 420,2013-03-02 09:16:00,
2013-03-02 04:21:00,55.2,36.2,29.97,WSW,248,2.2,2.2,48,0.00,,,0.00,WSDL version 420,2013-03-02 09:21:00,
2013-03-02 04:26:00,55.0,36.2,29.97,SW,225,0.0,2.0,49,0.00,,,0.00,WSDL version 420,2013-03-02 09:26:00,
2013-03-02 04:36:00,55.0,36.2,29.94,SW,225,0.0,2.0,49,0.00,,,0.00,WSDL version 420,2013-03-02 09:36:00,
2013-03-02 04:41:00,55.0,36.3,29.94,North,0,0.0,2.0,50,0.00,,,0.00,WSDL version 420,2013-03-02 09:41:00,
2013-03-02 04:46:00,55.0,36.3,29.94,North,0,0.0,2.0,49,0.00,,,0.00,WSDL version 420,2013-03-02 09:46:00,
2013-03-02 04:51:00,55.0,36.4,29.94,North,-999,-999.0,-999.0,50,0.00,,,0.00,WSDL version 420,2013-03-02 09:51:00,
2013-03-02 04:56:00,54.9,36.6,29.94,North,-999,-999.0,-999.0,50,0.00,,,0.00,WSDL version 420,2013-03-02 09:56:00,
2013-03-02 05:01:00,55.0,36.7,29.94,North,-999,-999.0,-999.0,50,0.00,,,0.00,WSDL version 420,2013-03-02 10:01:00,
2013-03-02 05:14:00,54.9,36.6,29.94,North,360,1.6,2.5,50,0.00,,,0.00,WSDL version 420,2013-03-02 10:14:00,
2013-03-02 05:19:00,54.8,36.5,29.94,North,360,1.6,2.5,50,0.00,,,0.00,WSDL version 420,2013-03-02 10:19:00,
2013-03-02 05:24:00,54.7,36.4,29.94,WNW,293,1.3,2.5,50,0.00,,,0.00,WSDL version 420,2013-03-02 10:24:00,
2013-03-02 05:29:00,54.6,36.6,29.94,WNW,293,1.3,2.5,51,0.00,,,0.00,WSDL version 420,2013-03-02 10:29:00,
2013-03-02 05:34:00,54.5,36.6,29.94,WNW,293,1.3,1.6,51,0.00,,,0.00,WSDL version 420,2013-03-02 10:34:00,
2013-03-02 05:39:00,54.4,36.7,29.94,North,0,0.0,1.6,51,0.00,,,0.00,WSDL version 420,2013-03-02 10:39:00,
2013-03-02 05:44:00,54.3,36.6,29.94,North,0,0.0,1.6,51,0.00,,,0.00,WSDL version 420,2013-03-02 10:44:00,
2013-03-02 05:49:00,54.3,36.6,29.94,North,-999,-999.0,-999.0,51,0.00,,,0.00,WSDL version 420,2013-03-02 10:49:00,
2013-03-02 05:54:00,54.2,36.5,29.94,North,-999,-999.0,-999.0,51,0.00,,,0.00,WSDL version 420,2013-03-02 10:54:00,
2013-03-02 05:59:00,54.1,36.9,29.94,North,-999,-999.0,-999.0,52,0.00,,,0.00,WSDL version 420,2013-03-02 10:59:00,
2013-03-02 06:04:00,54.1,36.9,29.94,North,-999,-999.0,-999.0,52,0.00,,,0.00,WSDL version 420,2013-03-02 11:04:00,
2013-03-02 06:09:00,54.1,37.0,29.97,North,-999,-999.0,-999.0,52,0.00,,,0.00,WSDL version 420,2013-03-02 11:09:00,
2013-03-02 06:14:00,54.1,37.4,29.97,North,-999,-999.0,-999.0,53,0.00,,,0.00,WSDL version 420,2013-03-02 11:14:00,
2013-03-02 06:19:00,54.0,36.9,29.97,North,-999,-999.0,-999.0,53,0.00,,,0.00,WSDL version 420,2013-03-02 11:19:00,
2013-03-02 06:24:00,54.0,37.2,29.97,North,-999,-999.0,-999.0,53,0.00,,,0.00,WSDL version 420,2013-03-02 11:24:00,
2013-03-02 06:29:00,54.0,37.2,29.97,NNW,338,1.6,4.3,53,0.00,,,0.00,WSDL version 420,2013-03-02 11:29:00,
2013-03-02 06:34:00,54.0,37.2,29.97,NNW,338,1.6,4.3,53,0.00,,,0.00,WSDL version 420,2013-03-02 11:34:00,
2013-03-02 06:39:00,53.8,37.1,29.97,West,270,2.9,6.5,53,0.00,,,0.00,WSDL version 420,2013-03-02 11:39:00,
2013-03-02 06:44:00,53.5,34.8,29.97,SW,233,2.7,6.5,49,0.00,,,0.00,WSDL version 420,2013-03-02 11:44:00,
2013-03-02 06:49:00,53.2,33.9,29.97,SSE,158,3.1,6.5,47,0.00,,,0.00,WSDL version 420,2013-03-02 11:49:00,
2013-03-02 06:54:00,53.1,33.4,29.97,SSE,158,3.1,3.6,47,0.00,,,0.00,WSDL version 420,2013-03-02 11:54:00,
2013-03-02 06:59:00,53.1,33.4,29.97,SSE,158,3.1,3.1,47,0.00,,,0.00,WSDL version 420,2013-03-02 11:59:00,
2013-03-02 07:04:00,52.9,32.9,29.97,North,0,0.0,1.6,46,0.00,,,0.00,WSDL version 420,2013-03-02 12:04:00,
2013-03-02 07:09:00,52.8,32.4,30.00,North,0,0.0,1.6,45,0.00,,,0.00,WSDL version 420,2013-03-02 12:09:00,
2013-03-02 07:14:00,52.9,32.4,30.00,North,-999,-999.0,-999.0,46,0.00,,,0.00,WSDL version 420,2013-03-02 12:14:00,
2013-03-02 07:19:00,52.7,31.9,30.00,North,-999,-999.0,-999.0,45,0.00,,,0.00,WSDL version 420,2013-03-02 12:19:00,
2013-03-02 07:24:00,52.7,31.9,30.00,North,-999,-999.0,-999.0,45,0.00,,,0.00,WSDL version 420,2013-03-02 12:24:00,
2013-03-02 07:29:00,52.7,32.0,30.00,North,-999,-999.0,-999.0,45,0.00,,,0.00,WSDL version 420,2013-03-02 12:29:00,
2013-03-02 07:34:00,52.7,32.0,30.00,North,-999,-999.0,-999.0,45,0.00,,,0.00,WSDL version 420,2013-03-02 12:34:00,
2013-03-02 07:39:00,53.0,31.8,29.97,North,-999,-999.0,-999.0,44,0.00,,,0.00,WSDL version 420,2013-03-02 12:39:00,
2013-03-02 07:44:00,53.3,32.0,29.97,NNW,335,2.5,4.0,44,0.00,,,0.00,WSDL version 420,2013-03-02 12:44:00,
2013-03-02 07:49:00,53.3,31.3,29.97,NNW,338,2.2,4.5,43,0.00,,,0.00,WSDL version 420,2013-03-02 12:49:00,
2013-03-02 07:54:00,53.4,31.5,30.00,NNW,347,2.2,4.5,42,0.00,,,0.00,WSDL version 420,2013-03-02 12:54:00,
2013-03-02 07:59:00,53.5,31.1,30.00,SSE,151,1.1,2.9,42,0.00,,,0.00,WSDL version 420,2013-03-02 12:59:00,
2013-03-02 08:04:00,53.6,31.2,30.00,North,351,2.3,2.9,42,0.00,,,0.00,WSDL version 420,2013-03-02 13:04:00,
2013-03-02 08:09:00,53.7,31.7,30.00,WNW,295,1.3,3.4,43,0.00,,,0.00,WSDL version 420,2013-03-02 13:09:00,
2013-03-02 08:14:00,53.6,31.1,30.00,NNW,344,1.7,3.4,42,0.00,,,0.00,WSDL version 420,2013-03-02 13:14:00,
2013-03-02 08:19:00,53.8,31.7,30.00,North,351,1.5,3.4,43,0.00,,,0.00,WSDL version 420,2013-03-02 13:19:00,
2013-03-02 08:24:00,54.5,33.1,30.00,NW,321,1.9,3.4,44,0.00,,,0.00,WSDL version 420,2013-03-02 13:24:00,
2013-03-02 08:29:00,54.5,32.2,30.00,NE,49,2.7,4.7,42,0.00,,,0.00,WSDL version 420,2013-03-02 13:29:00,
2013-03-02 08:34:00,54.6,31.0,30.00,NNW,338,2.7,4.7,40,0.00,,,0.00,WSDL version 420,2013-03-02 13:34:00,
2013-03-02 08:39:00,55.0,31.5,29.97,NNW,346,2.3,4.5,41,0.00,,,0.00,WSDL version 420,2013-03-02 13:39:00,
2013-03-02 08:44:00,55.0,31.2,29.97,North,354,1.5,4.5,40,0.00,,,0.00,WSDL version 420,2013-03-02 13:44:00,
2013-03-02 08:49:00,55.2,31.1,29.97,NNW,347,2.1,3.6,40,0.00,,,0.00,WSDL version 420,2013-03-02 13:49:00,
2013-03-02 08:54:00,55.3,31.2,29.97,North,4,2.0,3.6,40,0.00,,,0.00,WSDL version 420,2013-03-02 13:54:00,
2013-03-02 08:59:00,55.2,31.1,29.97,WNW,302,0.6,2.9,40,0.00,,,0.00,WSDL version 420,2013-03-02 13:59:00,
2013-03-02 09:04:00,55.2,31.2,29.97,North,6,1.7,3.1,40,0.00,,,0.00,WSDL version 420,2013-03-02 14:04:00,
2013-03-02 09:09:00,55.8,31.9,29.97,ESE,104,1.9,3.1,40,0.00,,,0.00,WSDL version 420,2013-03-02 14:09:00,
2013-03-02 09:14:00,56.2,32.2,29.97,NNE,20,1.1,2.9,40,0.00,,,0.00,WSDL version 420,2013-03-02 14:14:00,
2013-03-02 09:19:00,56.5,32.3,29.97,North,4,1.6,3.1,40,0.00,,,0.00,WSDL version 420,2013-03-02 14:19:00,
2013-03-02 09:24:00,56.8,32.0,29.97,WNW,293,2.1,3.1,38,0.00,,,0.00,WSDL version 420,2013-03-02 14:24:00,
2013-03-02 09:29:00,57.1,31.8,29.97,ENE,61,2.3,4.7,38,0.00,,,0.00,WSDL version 420,2013-03-02 14:29:00,
2013-03-02 09:34:00,57.6,31.5,29.97,North,6,2.1,4.7,37,0.00,,,0.00,WSDL version 420,2013-03-02 14:34:00,
2013-03-02 09:39:00,57.9,31.8,29.97,NNW,335,2.2,4.3,37,0.00,,,0.00,WSDL version 420,2013-03-02 14:39:00,
2013-03-02 09:44:00,58.2,31.4,29.97,NW,308,2.6,4.3,36,0.00,,,0.00,WSDL version 420,2013-03-02 14:44:00,
2013-03-02 09:49:00,58.7,32.2,29.97,NW,315,2.5,4.3,36,0.00,,,0.00,WSDL version 420,2013-03-02 14:49:00,
2013-03-02 09:54:00,59.1,32.2,30.00,North,354,3.0,4.3,36,0.00,,,0.00,WSDL version 420,2013-03-02 14:54:00,
2013-03-02 09:59:00,59.4,32.5,30.00,NNW,344,2.2,4.3,36,0.00,,,0.00,WSDL version 420,2013-03-02 14:59:00,
2013-03-02 10:04:00,59.7,32.6,30.00,North,354,1.8,3.1,36,0.00,,,0.00,WSDL version 420,2013-03-02 15:04:00,
2013-03-02 10:09:00,60.2,33.0,29.97,NE,42,2.2,3.1,36,0.00,,,0.00,WSDL version 420,2013-03-02 15:09:00,
2013-03-02 10:14:00,61.0,33.6,29.97,NNW,340,2.2,3.6,36,0.00,,,0.00,WSDL version 420,2013-03-02 15:14:00,
2013-03-02 10:19:00,61.7,34.2,29.97,NNE,23,1.7,3.6,36,0.00,,,0.00,WSDL version 420,2013-03-02 15:19:00,
2013-03-02 10:24:00,62.4,34.8,30.00,West,267,2.3,3.4,35,0.00,,,0.00,WSDL version 420,2013-03-02 15:24:00,
2013-03-02 10:29:00,62.8,34.8,30.00,SW,231,1.2,4.3,35,0.00,,,0.00,WSDL version 420,2013-03-02 15:29:00,
2013-03-02 10:34:00,62.8,34.7,30.00,North,8,1.7,4.3,35,0.00,,,0.00,WSDL version 420,2013-03-02 15:34:00,
2013-03-02 10:39:00,62.8,34.7,29.97,NW,323,2.4,4.3,35,0.00,,,0.00,WSDL version 420,2013-03-02 15:39:00,
2013-03-02 10:44:00,62.4,33.8,29.97,North,353,2.5,3.8,34,0.00,,,0.00,WSDL version 420,2013-03-02 15:44:00,
2013-03-02 10:49:00,62.7,34.1,29.97,NNW,335,2.1,5.4,34,0.00,,,0.00,WSDL version 420,2013-03-02 15:49:00,
2013-03-02 10:54:00,63.1,34.3,30.00,NNW,335,2.4,5.4,34,0.00,,,0.00,WSDL version 420,2013-03-02 15:54:00,
2013-03-02 10:59:00,63.2,34.4,30.00,North,354,2.8,3.8,34,0.00,,,0.00,WSDL version 420,2013-03-02 15:59:00,
2013-03-02 11:04:00,63.6,34.8,30.00,NNW,340,3.2,5.8,34,0.00,,,0.00,WSDL version 420,2013-03-02 16:04:00,
2013-03-02 11:09:00,64.0,35.1,29.97,NNW,329,2.8,5.8,34,0.00,,,0.00,WSDL version 420,2013-03-02 16:09:00,
2013-03-02 11:14:00,64.2,35.3,29.97,North,350,2.8,4.9,34,0.00,,,0.00,WSDL version 420,2013-03-02 16:14:00,
2013-03-02 11:19:00,64.3,35.2,29.97,West,274,2.3,4.9,33,0.00,,,0.00,WSDL version 420,2013-03-02 16:19:00,
2013-03-02 11:24:00,64.4,34.9,29.97,NW,318,2.4,4.3,33,0.00,,,0.00,WSDL version 420,2013-03-02 16:24:00,
2013-03-02 11:29:00,64.4,35.3,29.97,WNW,289,1.8,5.4,34,0.00,,,0.00,WSDL version 420,2013-03-02 16:29:00,
2013-03-02 11:34:00,64.7,35.1,29.97,North,354,3.1,6.5,33,0.00,,,0.00,WSDL version 420,2013-03-02 16:34:00,
2013-03-02 11:39:00,64.9,35.4,29.97,NNW,344,2.7,6.5,33,0.00,,,0.00,WSDL version 420,2013-03-02 16:39:00,
2013-03-02 11:44:00,65.4,35.9,29.97,NW,311,2.3,4.9,33,0.00,,,0.00,WSDL version 420,2013-03-02 16:44:00,
2013-03-02 11:49:00,65.7,36.4,29.97,NW,315,3.1,5.4,34,0.00,,,0.00,WSDL version 420,2013-03-02 16:49:00,
2013-03-02 11:54:00,65.8,36.7,29.97,WNW,297,2.4,5.6,34,0.00,,,0.00,WSDL version 420,2013-03-02 16:54:00,
2013-03-02 11:59:00,66.0,36.3,29.97,NE,51,2.6,5.6,34,0.00,,,0.00,WSDL version 420,2013-03-02 16:59:00,
2013-03-02 12:04:00,65.9,36.0,29.97,NNW,345,3.6,8.1,33,0.00,,,0.00,WSDL version 420,2013-03-02 17:04:00,
2013-03-02 12:09:00,65.7,35.8,29.97,NW,326,3.1,8.1,33,0.00,,,0.00,WSDL version 420,2013-03-02 17:09:00,
2013-03-02 12:14:00,65.6,35.8,29.97,WNW,293,4.1,5.8,33,0.00,,,0.00,WSDL version 420,2013-03-02 17:14:00,
2013-03-02 12:19:00,65.3,35.4,29.97,North,357,3.6,5.8,33,0.00,,,0.00,WSDL version 420,2013-03-02 17:19:00,
2013-03-02 12:24:00,65.8,35.9,29.97,West,267,2.2,5.6,33,0.00,,,0.00,WSDL version 420,2013-03-02 17:24:00,
2013-03-02 12:29:00,66.0,36.1,29.97,SSW,206,3.0,6.5,33,0.00,,,0.00,WSDL version 420,2013-03-02 17:29:00,
2013-03-02 12:34:00,66.2,36.3,29.97,SW,217,2.3,6.5,33,0.00,,,0.00,WSDL version 420,2013-03-02 17:34:00,
2013-03-02 12:39:00,66.6,37.0,29.94,WNW,300,3.1,8.5,34,0.00,,,0.00,WSDL version 420,2013-03-02 17:39:00,
2013-03-02 12:44:00,66.7,36.8,29.94,NNW,341,3.9,8.5,33,0.00,,,0.00,WSDL version 420,2013-03-02 17:44:00,
2013-03-02 12:49:00,66.9,37.3,29.94,NW,312,2.3,8.1,34,0.00,,,0.00,WSDL version 420,2013-03-02 17:49:00,
2013-03-02 12:54:00,67.5,37.8,29.91,NNW,329,4.3,6.3,33,0.00,,,0.00,WSDL version 420,2013-03-02 17:54:00,
2013-03-02 12:59:00,67.2,37.1,29.91,NNW,344,2.8,6.5,33,0.00,,,0.00,WSDL version 420,2013-03-02 17:59:00,
2013-03-02 13:04:00,67.6,38.2,29.91,West,278,2.6,6.5,34,0.00,,,0.00,WSDL version 420,2013-03-02 18:04:00,
2013-03-02 13:09:00,67.9,38.3,29.91,WNW,297,3.4,4.9,33,0.00,,,0.00,WSDL version 420,2013-03-02 18:09:00,
2013-03-02 13:14:00,67.6,37.5,29.91,NNW,347,2.7,8.1,33,0.00,,,0.00,WSDL version 420,2013-03-02 18:14:00,
2013-03-02 13:19:00,67.6,37.5,29.91,West,259,3.2,8.1,33,0.00,,,0.00,WSDL version 420,2013-03-02 18:19:00,
2013-03-02 13:29:00,67.1,37.2,29.94,WSW,251,2.1,6.0,34,0.00,,,0.00,WSDL version 420,2013-03-02 18:29:00,
2013-03-02 13:34:00,67.5,38.2,29.94,NW,307,3.0,4.7,34,0.00,,,0.00,WSDL version 420,2013-03-02 18:34:00,
2013-03-02 13:39:00,67.8,38.0,29.94,North,349,3.5,6.3,33,0.00,,,0.00,WSDL version 420,2013-03-02 18:39:00,
2013-03-02 13:44:00,67.2,37.2,29.94,WSW,251,3.4,7.2,33,0.00,,,0.00,WSDL version 420,2013-03-02 18:44:00,
2013-03-02 13:49:00,67.1,37.1,29.94,NW,325,4.1,7.2,33,0.00,,,0.00,WSDL version 420,2013-03-02 18:49:00,
2013-03-02 13:54:00,66.4,36.5,29.94,WNW,300,4.7,8.1,33,0.00,,,0.00,WSDL version 420,2013-03-02 18:54:00,
2013-03-02 13:59:00,65.9,36.0,29.94,NW,305,3.5,8.1,33,0.00,,,0.00,WSDL version 420,2013-03-02 18:59:00,
2013-03-02 14:04:00,65.6,35.8,29.94,SW,214,2.8,6.3,33,0.00,,,0.00,WSDL version 420,2013-03-02 19:04:00,
2013-03-02 14:09:00,66.0,36.5,29.94,NNW,343,3.2,6.3,33,0.00,,,0.00,WSDL version 420,2013-03-02 19:09:00,
2013-03-02 14:14:00,65.7,35.8,29.94,West,266,2.1,6.3,33,0.00,,,0.00,WSDL version 420,2013-03-02 19:14:00,
2013-03-02 14:19:00,65.5,36.4,29.94,South,191,2.0,6.3,34,0.00,,,0.00,WSDL version 420,2013-03-02 19:19:00,
2013-03-02 14:24:00,65.6,36.5,29.94,NNE,18,2.2,4.7,34,0.00,,,0.00,WSDL version 420,2013-03-02 19:24:00,
2013-03-02 14:34:00,66.2,36.5,29.94,WSW,244,2.4,5.6,33,0.00,,,0.00,WSDL version 420,2013-03-02 19:34:00,
2013-03-02 14:39:00,66.3,36.4,29.94,NW,323,2.4,5.6,33,0.00,,,0.00,WSDL version 420,2013-03-02 19:39:00,
2013-03-02 14:44:00,66.4,36.4,29.94,WNW,302,3.0,5.8,33,0.00,,,0.00,WSDL version 420,2013-03-02 19:44:00,
2013-03-02 14:54:00,65.7,35.8,29.91,NNW,331,2.5,7.8,33,0.00,,,0.00,WSDL version 420,2013-03-02 19:54:00,
2013-03-02 14:59:00,65.8,36.1,29.91,NNW,345,3.5,6.3,33,0.00,,,0.00,WSDL version 420,2013-03-02 19:59:00,
2013-03-02 15:09:00,65.4,35.8,29.97,NNW,341,4.0,7.8,34,0.00,,,0.00,WSDL version 420,2013-03-02 20:09:00,
2013-03-02 15:14:00,66.8,37.2,29.97,North,4,2.1,7.8,33,0.00,,,0.00,WSDL version 420,2013-03-02 20:14:00,
2013-03-02 15:19:00,67.0,37.5,29.97,NNW,334,2.5,5.4,33,0.00,,,0.00,WSDL version 420,2013-03-02 20:19:00,
2013-03-02 15:24:00,66.3,36.8,29.91,WNW,302,2.8,5.4,34,0.00,,,0.00,WSDL version 420,2013-03-02 20:24:00,
2013-03-02 15:29:00,66.3,36.9,29.91,West,266,2.9,4.3,34,0.00,,,0.00,WSDL version 420,2013-03-02 20:29:00,
2013-03-02 15:34:00,66.5,36.5,29.91,WNW,283,1.7,4.3,33,0.00,,,0.00,WSDL version 420,2013-03-02 20:34:00,
2013-03-02 15:39:00,66.4,36.5,29.94,WSW,238,3.0,7.4,33,0.00,,,0.00,WSDL version 420,2013-03-02 20:39:00,
2013-03-02 15:44:00,65.4,35.7,29.94,SW,233,2.5,7.4,33,0.00,,,0.00,WSDL version 420,2013-03-02 20:44:00,
2013-03-02 15:49:00,64.3,35.1,29.94,NNW,341,1.7,4.3,34,0.00,,,0.00,WSDL version 420,2013-03-02 20:49:00,
2013-03-02 15:54:00,64.4,35.4,29.91,NNW,338,2.1,6.0,34,0.00,,,0.00,WSDL version 420,2013-03-02 20:54:00,
2013-03-02 16:04:00,64.6,35.7,29.91,NW,312,2.4,7.2,34,0.00,,,0.00,WSDL version 420,2013-03-02 21:04:00,
2013-03-02 16:09:00,65.3,36.5,29.94,WSW,241,1.3,7.2,35,0.00,,,0.00,WSDL version 420,2013-03-02 21:09:00,
2013-03-02 16:14:00,66.0,37.3,29.94,WNW,293,2.0,2.7,34,0.00,,,0.00,WSDL version 420,2013-03-02 21:14:00,
2013-03-02 16:19:00,65.3,36.4,29.94,West,259,0.9,2.9,35,0.00,,,0.00,WSDL version 420,2013-03-02 21:19:00,
2013-03-02 16:24:00,65.0,36.3,29.94,WNW,283,3.7,5.8,34,0.00,,,0.00,WSDL version 420,2013-03-02 21:24:00,
2013-03-02 16:34:00,64.7,36.3,29.94,SW,235,2.2,3.1,35,0.00,,,0.00,WSDL version 420,2013-03-02 21:34:00,
2013-03-02 16:39:00,64.1,36.0,29.94,North,4,1.8,3.8,35,0.00,,,0.00,WSDL version 420,2013-03-02 21:39:00,
2013-03-02 16:44:00,63.5,35.4,29.94,NW,315,1.9,3.8,35,0.00,,,0.00,WSDL version 420,2013-03-02 21:44:00,
2013-03-02 16:49:00,63.3,35.2,29.94,SW,218,3.2,7.2,35,0.00,,,0.00,WSDL version 420,2013-03-02 21:49:00,
2013-03-02 16:54:00,63.0,34.9,29.94,North,360,1.9,7.2,35,0.00,,,0.00,WSDL version 420,2013-03-02 21:54:00,
2013-03-02 17:04:00,62.5,35.2,29.94,WNW,283,2.5,3.8,36,0.00,,,0.00,WSDL version 420,2013-03-02 22:04:00,
2013-03-02 17:09:00,61.7,34.5,29.94,West,281,2.9,4.3,36,0.00,,,0.00,WSDL version 420,2013-03-02 22:09:00,
2013-03-02 17:14:00,61.0,33.9,29.94,NW,305,1.7,4.3,36,0.00,,,0.00,WSDL version 420,2013-03-02 22:14:00,
2013-03-02 17:19:00,60.7,34.1,29.94,ENE,71,1.0,2.9,37,0.00,,,0.00,WSDL version 420,2013-03-02 22:19:00,
2013-03-02 17:24:00,60.3,33.9,29.94,WSW,254,2.5,3.1,37,0.00,,,0.00,WSDL version 420,2013-03-02 22:24:00,
2013-03-02 17:29:00,60.0,34.2,29.94,WSW,255,1.6,3.1,38,0.00,,,0.00,WSDL version 420,2013-03-02 22:29:00,
2013-03-02 17:34:00,59.8,34.2,29.94,NNW,338,2.4,3.8,38,0.00,,,0.00,WSDL version 420,2013-03-02 22:34:00,
2013-03-02 17:39:00,59.6,34.0,29.94,NNW,333,1.8,3.8,38,0.00,,,0.00,WSDL version 420,2013-03-02 22:39:00,
2013-03-02 17:44:00,59.4,34.0,29.94,South,191,1.3,2.9,39,0.00,,,0.00,WSDL version 420,2013-03-02 22:44:00,
2013-03-02 17:49:00,59.2,34.0,29.94,WNW,296,0.2,2.7,39,0.00,,,0.00,WSDL version 420,2013-03-02 22:49:00,
2013-03-02 17:54:00,59.2,34.3,29.94,SSW,210,0.8,3.4,39,0.00,,,0.00,WSDL version 420,2013-03-02 22:54:00,
2013-03-02 17:59:00,59.0,34.1,29.94,SW,233,0.0,3.4,39,0.00,,,0.00,WSDL version 420,2013-03-02 22:59:00,
2013-03-02 18:04:00,59.0,34.1,29.94,SW,231,0.9,2.9,39,0.00,,,0.00,WSDL version 420,2013-03-02 23:04:00,
2013-03-02 18:09:00,58.8,34.0,29.94,WSW,244,1.7,2.7,39,0.00,,,0.00,WSDL version 420,2013-03-02 23:09:00,
2013-03-02 18:14:00,58.6,33.9,29.94,NW,307,1.0,2.7,39,0.00,,,0.00,WSDL version 420,2013-03-02 23:14:00,
2013-03-02 18:19:00,58.5,35.8,29.94,West,270,1.0,2.7,45,0.00,,,0.00,WSDL version 420,2013-03-02 23:19:00,
2013-03-02 18:24:00,58.3,37.2,29.94,SW,222,0.3,2.5,45,0.00,,,0.00,WSDL version 420,2013-03-02 23:24:00,
2013-03-02 18:29:00,58.0,37.0,29.94,NNW,330,1.9,3.6,44,0.00,,,0.00,WSDL version 420,2013-03-02 23:29:00,
2013-03-02 18:34:00,57.7,35.4,29.94,WNW,285,1.1,3.6,43,0.00,,,0.00,WSDL version 420,2013-03-02 23:34:00,
2013-03-02 18:39:00,57.7,35.4,29.94,West,275,0.2,2.9,43,0.00,,,0.00,WSDL version 420,2013-03-02 23:39:00,
2013-03-02 18:44:00,57.6,35.3,29.94,West,270,0.0,1.3,43,0.00,,,0.00,WSDL version 420,2013-03-02 23:44:00,
2013-03-02 18:49:00,57.5,35.2,29.94,WNW,293,0.0,0.0,43,0.00,,,0.00,WSDL version 420,2013-03-02 23:49:00,
2013-03-02 18:54:00,57.2,34.9,29.94,SW,225,0.4,1.6,43,0.00,,,0.00,WSDL version 420,2013-03-02 23:54:00,
2013-03-02 18:59:00,57.0,35.0,29.94,South,191,0.0,1.6,44,0.00,,,0.00,WSDL version 420,2013-03-02 23:59:00,
2013-03-02 19:04:00,56.8,35.2,29.94,SW,221,0.0,1.6,44,0.00,,,0.00,WSDL version 420,2013-03-03 00:04:00,
2013-03-02 19:09:00,56.7,35.4,29.97,SSW,203,0.0,0.0,45,0.00,,,0.00,WSDL version 420,2013-03-03 00:09:00,
2013-03-02 19:14:00,56.7,35.9,29.97,SSW,203,0.0,0.0,46,0.00,,,0.00,WSDL version 420,2013-03-03 00:14:00,
2013-03-02 19:19:00,56.4,35.9,29.97,SSW,203,0.0,0.0,46,0.00,,,0.00,WSDL version 420,2013-03-03 00:19:00,
2013-03-02 19:24:00,56.2,35.7,29.97,SSW,203,0.0,0.0,46,0.00,,,0.00,WSDL version 420,2013-03-03 00:24:00,
2013-03-02 19:29:00,56.1,36.0,29.97,SSW,203,0.0,0.0,47,0.00,,,0.00,WSDL version 420,2013-03-03 00:29:00,
2013-03-02 19:34:00,55.9,36.2,29.97,SSW,203,0.0,0.0,48,0.00,,,0.00,WSDL version 420,2013-03-03 00:34:00,
2013-03-02 19:39:00,55.5,36.1,29.97,SSW,203,0.0,0.0,48,0.00,,,0.00,WSDL version 420,2013-03-03 00:39:00,
2013-03-02 19:44:00,55.2,36.4,29.97,SSW,203,0.0,0.0,49,0.00,,,0.00,WSDL version 420,2013-03-03 00:44:00,
2013-03-02 19:49:00,55.0,36.5,29.97,SSW,203,0.0,0.0,50,0.00,,,0.00,WSDL version 420,2013-03-03 00:49:00,
2013-03-02 19:54:00,54.8,36.5,29.97,SSW,203,0.0,0.0,50,0.00,,,0.00,WSDL version 420,2013-03-03 00:54:00,
2013-03-02 19:59:00,54.3,35.8,29.97,SSW,203,0.0,0.0,49,0.00,,,0.00,WSDL version 420,2013-03-03 00:59:00,
2013-03-02 20:04:00,54.1,35.9,29.97,SSW,203,0.0,0.0,50,0.00,,,0.00,WSDL version 420,2013-03-03 01:04:00,
2013-03-02 20:09:00,54.0,36.1,29.97,SSW,203,0.0,0.0,51,0.00,,,0.00,WSDL version 420,2013-03-03 01:09:00,
2013-03-02 20:14:00,54.0,36.3,29.97,SSW,203,0.0,0.0,51,0.00,,,0.00,WSDL version 420,2013-03-03 01:14:00,
2013-03-02 20:19:00,54.1,36.9,29.97,SSW,203,0.0,0.0,53,0.00,,,0.00,WSDL version 420,2013-03-03 01:19:00,
2013-03-02 20:24:00,54.1,37.4,29.97,SSW,203,0.0,0.0,53,0.00,,,0.00,WSDL version 420,2013-03-03 01:24:00,
2013-03-02 20:29:00,54.0,37.6,29.97,SSW,203,0.0,0.0,54,0.00,,,0.00,WSDL version 420,2013-03-03 01:29:00,
2013-03-02 20:34:00,53.9,37.6,29.97,SSW,203,0.0,0.0,54,0.00,,,0.00,WSDL version 420,2013-03-03 01:34:00,
2013-03-02 20:39:00,53.6,37.1,29.97,SSW,203,0.0,0.0,53,0.00,,,0.00,WSDL version 420,2013-03-03 01:39:00,
2013-03-02 20:44:00,53.6,37.1,29.97,SSW,203,0.0,0.0,54,0.00,,,0.00,WSDL version 420,2013-03-03 01:44:00,
2013-03-02 20:49:00,53.6,37.4,29.97,SSW,203,0.0,0.0,54,0.00,,,0.00,WSDL version 420,2013-03-03 01:49:00,
2013-03-02 20:54:00,53.6,37.6,30.00,SSW,203,0.0,0.0,55,0.00,,,0.00,WSDL version 420,2013-03-03 01:54:00,
2013-03-02 20:59:00,53.6,37.8,30.00,SSW,203,0.0,0.0,55,0.00,,,0.00,WSDL version 420,2013-03-03 01:59:00,
2013-03-02 21:04:00,53.5,38.0,30.00,SSW,203,0.0,0.0,56,0.00,,,0.00,WSDL version 420,2013-03-03 02:04:00,
2013-03-02 21:09:00,53.4,38.4,29.97,SSW,203,0.0,0.0,57,0.00,,,0.00,WSDL version 420,2013-03-03 02:09:00,
2013-03-02 21:14:00,53.2,38.3,29.97,SSW,203,0.0,0.0,57,0.00,,,0.00,WSDL version 420,2013-03-03 02:14:00,
2013-03-02 21:19:00,53.1,38.4,29.97,SSW,203,0.0,0.0,58,0.00,,,0.00,WSDL version 420,2013-03-03 02:19:00,
2013-03-02 21:24:00,52.8,38.5,30.00,SSW,203,0.0,0.0,58,0.00,,,0.00,WSDL version 420,2013-03-03 02:24:00,
2013-03-02 21:29:00,52.5,38.1,30.00,SSW,203,0.0,0.0,58,0.00,,,0.00,WSDL version 420,2013-03-03 02:29:00,
2013-03-02 21:34:00,52.3,38.0,30.00,SSW,203,0.0,0.0,58,0.00,,,0.00,WSDL version 420,2013-03-03 02:34:00,
2013-03-02 21:39:00,52.2,38.0,30.00,SSW,203,0.0,0.0,59,0.00,,,0.00,WSDL version 420,2013-03-03 02:39:00,
2013-03-02 21:44:00,52.0,38.2,30.00,SSW,203,0.0,0.0,60,0.00,,,0.00,WSDL version 420,2013-03-03 02:44:00,
2013-03-02 21:49:00,51.8,38.4,30.00,SSW,203,0.0,0.0,60,0.00,,,0.00,WSDL version 420,2013-03-03 02:49:00,
2013-03-02 21:54:00,51.5,38.1,30.00,SSW,203,0.0,0.0,60,0.00,,,0.00,WSDL version 420,2013-03-03 02:54:00,
2013-03-02 21:59:00,51.3,37.9,30.00,SSW,203,0.0,0.0,60,0.00,,,0.00,WSDL version 420,2013-03-03 02:59:00,
2013-03-02 22:04:00,51.1,37.7,30.00,SSW,203,0.0,0.0,60,0.00,,,0.00,WSDL version 420,2013-03-03 03:04:00,
2013-03-02 22:09:00,51.0,38.1,30.00,SSW,203,0.0,0.0,61,0.00,,,0.00,WSDL version 420,2013-03-03 03:09:00,
2013-03-02 22:14:00,50.9,38.3,30.00,SSW,203,0.0,0.0,62,0.00,,,0.00,WSDL version 420,2013-03-03 03:14:00,
2013-03-02 22:19:00,50.6,38.2,30.00,SSW,203,0.0,0.0,63,0.00,,,0.00,WSDL version 420,2013-03-03 03:19:00,
2013-03-02 22:24:00,50.4,38.5,30.00,SSW,203,0.0,0.0,64,0.00,,,0.00,WSDL version 420,2013-03-03 03:24:00,
2013-03-02 22:29:00,50.2,38.5,30.00,SSW,203,0.0,0.0,64,0.00,,,0.00,WSDL version 420,2013-03-03 03:29:00,
2013-03-02 22:34:00,50.2,38.9,30.00,SSW,203,0.0,0.0,65,0.00,,,0.00,WSDL version 420,2013-03-03 03:34:00,
2013-03-02 22:39:00,49.9,38.6,30.00,SSW,203,0.0,0.0,65,0.00,,,0.00,WSDL version 420,2013-03-03 03:39:00,
2013-03-02 22:44:00,49.8,38.6,30.00,SSW,203,0.0,0.0,66,0.00,,,0.00,WSDL version 420,2013-03-03 03:44:00,
2013-03-02 22:49:00,49.6,38.8,30.00,SSW,203,0.0,0.0,66,0.00,,,0.00,WSDL version 420,2013-03-03 03:49:00,
2013-03-02 22:54:00,49.5,38.6,30.00,SSW,203,0.0,0.0,66,0.00,,,0.00,WSDL version 420,2013-03-03 03:54:00,
2013-03-02 22:59:00,49.3,38.4,30.00,SSW,203,0.0,0.0,66,0.00,,,0.00,WSDL version 420,2013-03-03 03:59:00,
2013-03-02 23:04:00,49.0,38.1,30.00,SSW,203,0.0,0.0,66,0.00,,,0.00,WSDL version 420,2013-03-03 04:04:00,
2013-03-02 23:09:00,48.8,38.4,30.00,SSW,203,0.0,0.0,67,0.00,,,0.00,WSDL version 420,2013-03-03 04:09:00,
2013-03-02 23:14:00,48.7,38.7,30.00,SSW,203,0.0,0.0,68,0.00,,,0.00,WSDL version 420,2013-03-03 04:14:00,
2013-03-02 23:19:00,48.6,38.5,30.00,SSW,203,0.0,0.0,68,0.00,,,0.00,WSDL version 420,2013-03-03 04:19:00,
2013-03-02 23:24:00,48.4,38.3,30.00,SSW,203,0.0,0.0,68,0.00,,,0.00,WSDL version 420,2013-03-03 04:24:00,
2013-03-02 23:29:00,48.3,38.3,30.00,NNE,23,0.0,0.0,68,0.00,,,0.00,WSDL version 420,2013-03-03 04:29:00,
2013-03-02 23:34:00,48.2,38.2,30.00,NNW,343,0.0,0.0,68,0.00,,,0.00,WSDL version 420,2013-03-03 04:34:00,
2013-03-02 23:39:00,48.4,38.3,29.97,NW,315,0.0,0.0,67,0.00,,,0.00,WSDL version 420,2013-03-03 04:39:00,
2013-03-02 23:44:00,48.6,38.1,29.97,East,90,0.0,0.0,67,0.00,,,0.00,WSDL version 420,2013-03-03 04:44:00,
2013-03-02 23:49:00,48.7,37.8,29.97,ESE,106,0.0,0.0,65,0.00,,,0.00,WSDL version 420,2013-03-03 04:49:00,
2013-03-02 23:54:00,48.8,37.6,29.97,ESE,113,0.0,0.0,65,0.00,,,0.00,WSDL version 420,2013-03-03 04:54:00,
2013-03-02 23:59:00,48.9,37.3,29.97,NE,34,0.8,2.0,63,0.00,,,0.00,WSDL version 420,2013-03-03 04:59:00,